Shannon, Ireland

5:34 AM IST on September 01, 2016 (GMT +0100)
Shannon

Weather History for EINN - June, 2014

Change the Weather History Date:

Monday, June 30, 2014

  Actual Average Record
Temperature  
Mean Temperature 62 °F -  
Max Temperature 70 °F 67 °F 73 °F (2000)
Min Temperature 55 °F 54 °F 50 °F (2006)
Degree Days  
Heating Degree Days 2    
Growing Degree Days 12 (Base 50)    
Moisture  
Dew Point 45 °F    
Average Humidity 52    
Maximum Humidity 77    
Minimum Humidity 26    
Precipitation  
Precipitation 0.00 in 0.07 in - ()
Sea Level Pressure  
Sea Level Pressure 29.99 in    
Wind  
Wind Speed 8 mph ()    
Max Wind Speed 14 mph    
Max Gust Speed -    
Visibility 8.6 miles    
Events      
Averages and records for this station are not official NWS values.
T = Trace of Precipitation, MM = Missing Value Source: Averaged Metar Reports

Daily Weather History Graph

Daily Weather History Graph

Search for Another Location

Airport or City:

Trip Planner

Search our weather history database for the weather conditions in past years. The results will help you decide how hot, cold, wet, or windy it might be!

Date:

Astronomy

Jun. 30, 2014 Rise Set
Actual Time 5:15 AM IST 10:03 PM IST
Civil Twilight 4:25 AM IST 10:53 PM IST
Nautical Twilight 3:02 AM IST 12:15 AM IST
Astronomical Twilight Sun does not set Sun does not set
Moon 8:44 AM IST (6/30) 11:16 PM IST (6/30)
Length of Visible Light 18h 28m
Length of Day
16h 47m
Waxing Crescent, 9% of the Moon is Illuminated
Jun 30
Waxing Crescent
Jul 5
First Quarter
Jul 12
Full
Jul 19
Last Quarter
Jul 26
New

Hourly Weather History & Observations

Time (IST) Temp. Dew Point Humidity Pressure Visibility Wind Dir Wind Speed Gust Speed Precip Events Conditions
12:00 AM 59 °F 49 °F 62% 30.01 in 19 mi ESE 6.7 mph - -   Scattered Clouds
12:00 AM 59.0 °F 50.0 °F 72% 30.01 in - ESE 6.9 mph - N/A   Clear
12:30 AM 59.0 °F 48.2 °F 67% 30.01 in - ESE 8.1 mph - N/A   Clear
1:00 AM 58 °F 48 °F 59% 30.01 in 16 mi ESE 6.7 mph - -   Mostly Cloudy
1:00 AM 59.0 °F 48.2 °F 67% 30.01 in - ESE 6.9 mph - N/A   Clear
1:30 AM 57.2 °F 48.2 °F 72% 29.98 in - East 5.8 mph - N/A   Clear
2:00 AM 58 °F 47 °F 58% 30.00 in 16 mi East 6.7 mph - -   Mostly Cloudy
2:00 AM 57.2 °F 46.4 °F 67% 29.98 in - East 6.9 mph - N/A   Clear
2:30 AM 57.2 °F 46.4 °F 67% 29.98 in - East 6.9 mph - N/A   Clear
3:00 AM 57 °F 47 °F 60% 29.99 in 16 mi East 6.7 mph - -   Mostly Cloudy
3:00 AM 57.2 °F 46.4 °F 67% 29.98 in - East 5.8 mph - N/A   Clear
3:30 AM 57.2 °F 46.4 °F 67% 29.98 in - East 6.9 mph - N/A   Clear
4:00 AM 56 °F 47 °F 64% 29.98 in 16 mi East 6.7 mph - -   Mostly Cloudy
4:00 AM 55.4 °F 48.2 °F 77% 29.98 in - East 6.9 mph - N/A   Clear
4:30 AM 55.4 °F 46.4 °F 72% 29.98 in - East 8.1 mph - N/A   Clear
5:00 AM 55 °F 47 °F 66% 29.98 in 19 mi ESE 8.9 mph - -   Mostly Cloudy
5:00 AM 55.4 °F 46.4 °F 72% 29.98 in - ESE 8.1 mph - N/A   Clear
5:30 AM 55.4 °F 48.2 °F 77% 29.98 in - East 10.4 mph - N/A   Clear
6:00 AM 56 °F 49 °F 70% 29.98 in 25 mi East 8.9 mph - -   Mostly Cloudy
6:00 AM 55.4 °F 48.2 °F 77% 29.98 in - East 9.2 mph - N/A   Clear
6:30 AM 57.2 °F 48.2 °F 72% 29.98 in - East 9.2 mph - N/A   Clear
7:00 AM 56 °F 49 °F 69% 29.98 in 25 mi East 8.9 mph - -   Partly Cloudy
7:00 AM 57.2 °F 48.2 °F 72% 29.98 in - East 9.2 mph - N/A   Clear
7:30 AM 57.2 °F 50.0 °F 77% 29.98 in - East 9.2 mph - N/A   Clear
8:00 AM 57 °F 48 °F 65% 29.99 in 25 mi East 8.9 mph - -   Partly Cloudy
8:00 AM 57.2 °F 48.2 °F 72% 29.98 in - East 8.1 mph - N/A   Clear
8:30 AM 57.2 °F 46.4 °F 67% 29.98 in - East 10.4 mph - N/A   Clear
9:00 AM 59 °F 46 °F 52% 30.00 in 25 mi East 8.9 mph - -   Mostly Cloudy
9:00 AM 59.0 °F 46.4 °F 63% 29.98 in - East 9.2 mph - N/A   Clear
9:30 AM 59.0 °F 44.6 °F 59% 29.98 in - East 10.4 mph - N/A   Clear
10:00 AM 62 °F 45 °F 42% 29.99 in 25 mi East 11.2 mph - -   Scattered Clouds
10:00 AM 62.6 °F 44.6 °F 52% 29.98 in 6.2 mi East 10.4 mph - N/A   Mostly Cloudy
10:30 AM 62.6 °F 44.6 °F 52% 29.98 in 6.2 mi East 10.4 mph - N/A   Mostly Cloudy
11:00 AM 63 °F 42 °F 34% 29.99 in 37 mi East 11.2 mph - -   Scattered Clouds
11:00 AM 62.6 °F 42.8 °F 48% 29.98 in 6.2 mi East 11.5 mph - N/A   Mostly Cloudy
11:30 AM 66.2 °F 41.0 °F 40% 29.98 in 6.2 mi East 11.5 mph - N/A   Scattered Clouds
12:00 PM 67 °F 42 °F 29% 29.99 in 37 mi East 13.4 mph - -   Scattered Clouds
12:00 PM 68.0 °F 42.8 °F 40% 29.98 in 6.2 mi East 12.7 mph - N/A   Scattered Clouds
12:30 PM 66.2 °F 41.0 °F 40% 29.98 in 6.2 mi East 13.8 mph - N/A   Mostly Cloudy
1:00 PM 68 °F 43 °F 29% 30.00 in 37 mi East 13.4 mph - -   Scattered Clouds
1:00 PM 68.0 °F 42.8 °F 40% 29.98 in 6.2 mi East 12.7 mph - N/A   Mostly Cloudy
1:30 PM 68.0 °F 42.8 °F 40% 29.98 in 6.2 mi East 10.4 mph - N/A   Mostly Cloudy
2:00 PM 69 °F 42 °F 26% 29.99 in 37 mi East 8.9 mph - -   Partly Cloudy
2:00 PM 69.8 °F 41.0 °F 35% 29.98 in 6.2 mi East 9.2 mph - N/A   Scattered Clouds
2:30 PM 66.2 °F 41.0 °F 40% 29.98 in 6.2 mi ENE 12.7 mph - N/A   Scattered Clouds
3:00 PM 68 °F 42 °F 28% 29.99 in 37 mi East 13.4 mph - -   Partly Cloudy
3:00 PM 68.0 °F 42.8 °F 40% 29.98 in 6.2 mi East 12.7 mph - N/A   Scattered Clouds
3:30 PM 69.8 °F 41.0 °F 35% 29.98 in 6.2 mi ESE 11.5 mph - N/A   Scattered Clouds
4:00 PM 68 °F 42 °F 27% 29.99 in 19 mi ENE 11.2 mph - -   Scattered Clouds
4:00 PM 68.0 °F 42.8 °F 40% 29.98 in 6.2 mi ENE 11.5 mph - N/A   Mostly Cloudy
4:30 PM 68.0 °F 42.8 °F 40% 29.98 in 6.2 mi East 9.2 mph - N/A   Mostly Cloudy
5:00 PM 69 °F 44 °F 28% 29.99 in 37 mi East 8.9 mph - -   Partly Cloudy
5:00 PM 69.8 °F 42.8 °F 38% 29.98 in 6.2 mi East 8.1 mph - N/A   Mostly Cloudy
5:30 PM 69.8 °F 42.8 °F 38% 29.98 in 6.2 mi East 8.1 mph - N/A   Scattered Clouds
6:00 PM 69 °F 44 °F 29% 29.99 in 37 mi ESE 8.9 mph - -   Scattered Clouds
6:00 PM 69.8 °F 44.6 °F 40% 29.98 in 6.2 mi ESE 9.2 mph - N/A   Scattered Clouds
6:30 PM 68.0 °F 44.6 °F 43% 29.98 in 6.2 mi ENE 8.1 mph - N/A   Mostly Cloudy
7:00 PM 69 °F 43 °F 28% 29.99 in 37 mi ENE 8.9 mph - -   Scattered Clouds
7:00 PM 69.8 °F 42.8 °F 38% 29.98 in 6.2 mi ENE 9.2 mph - N/A   Scattered Clouds
7:30 PM 68.0 °F 42.8 °F 40% 29.98 in 6.2 mi East 9.2 mph - N/A   Scattered Clouds
8:00 PM 67 °F 42 °F 29% 30.00 in 37 mi ENE 8.9 mph - -   Scattered Clouds
8:00 PM 68.0 °F 42.8 °F 40% 29.98 in 6.2 mi ENE 10.4 mph - N/A   Scattered Clouds
8:30 PM 68.0 °F 42.8 °F 40% 30.01 in - NE 10.4 mph - N/A   Clear
9:00 PM 67 °F 41 °F 27% 30.01 in 37 mi ENE 11.2 mph - -   Scattered Clouds
9:00 PM 66.2 °F 41.0 °F 40% 30.01 in - ENE 10.4 mph - N/A   Clear
9:30 PM 62.6 °F 42.8 °F 48% 30.01 in - NE 8.1 mph - N/A   Clear
10:00 PM 59 °F 44 °F 46% 30.03 in 31 mi NNE 6.7 mph - -   Scattered Clouds
10:00 PM 59.0 °F 44.6 °F 59% 30.01 in 6.2 mi NNE 6.9 mph - N/A   Partly Cloudy
10:30 PM 57.2 °F 42.8 °F 59% 30.04 in 6.2 mi NNE 8.1 mph - N/A   Partly Cloudy
11:00 PM 56 °F 43 °F 52% 30.05 in 31 mi NNE 6.7 mph - -   Scattered Clouds
11:00 PM 57.2 °F 42.8 °F 59% 30.04 in 6.2 mi NNE 6.9 mph - N/A   Partly Cloudy
11:30 PM 55.4 °F 42.8 °F 63% 30.04 in 6.2 mi NNE 6.9 mph - N/A   Partly Cloudy